Weather History for Wright-Patt AFB, OH

Change the Weather History Date:

Tuesday, July 2, 2013

  Actual Average Record
Temperature  
Mean Temperature 73 °F -  
Max Temperature 82 °F 81 °F 93 °F (2006)
Min Temperature 65 °F 60 °F 48 °F (2007)
Cooling Degree Days 8    
Growing Degree Days 23 (Base 50)    
Moisture  
Dew Point 61 °F    
Average Humidity 72    
Maximum Humidity 88    
Minimum Humidity 43    
Precipitation  
Precipitation 0.01 in - - ()
Sea Level Pressure  
Sea Level Pressure 29.97 in    
Wind  
Wind Speed 6 mph (ENE)    
Max Wind Speed 12 mph    
Max Gust Speed -    
Visibility 9 miles    
Events Rain    
Averages and records for this station are not official NWS values.
T = Trace of Precipitation, MM = Missing Value Source: NWS Daily Summary

Daily Weather History Graph

Daily Weather History Graph

Search for Another Location

Airport:

Trip Planner

Search our weather history database for the weather conditions in past years. The results will help you decide how hot, cold, wet, or windy it might be!

Date:

Astronomy

Jul. 02, 2013 Rise Set
Actual Time 6:12 AM EDT 9:08 PM EDT
Civil Twilight 5:39 AM EDT 9:40 PM EDT
Nautical Twilight 4:58 AM EDT 10:21 PM EDT
Astronomical Twilight 4:11 AM EDT 11:09 PM EDT
Moon 2:13 AM EDT (7/2) 4:21 PM EDT (7/2)
Length of Visible Light 16h 00m
Length of Day
14h 55m
Waning Crescent, 26% of the Moon is Illuminated
Jul 2
Waning Crescent
Jul 8
New
Jul 15
First Quarter
Jul 22
Full
Jul 29
Last Quarter

Hourly Weather History & Observations

Time (EDT) Temp. Heat Index Dew Point Humidity Pressure Visibility Wind Dir Wind Speed Gust Speed Precip Events Conditions
12:08 AM 66.2 °F - 60.8 °F 83% 29.96 in 10.0 mi North 5.8 mph - N/A   Overcast
12:38 AM 66.2 °F - 60.8 °F 83% 29.96 in 10.0 mi North 8.1 mph - N/A Rain Light Rain
12:58 AM 66.7 °F - 61.2 °F 82% 29.95 in 10.0 mi NNE 9.2 mph - 0.01 in Rain Light Rain
1:16 AM 66.2 °F - 60.8 °F 83% 29.95 in 10.0 mi NNE 8.1 mph - N/A   Mostly Cloudy
1:58 AM 66.2 °F - 61.3 °F 84% 29.95 in 10.0 mi NNE 8.1 mph - 0.00 in   Overcast
2:08 AM 66.2 °F - 60.8 °F 83% 29.94 in 9.0 mi NNE 8.1 mph - N/A   Mostly Cloudy
2:18 AM 66.2 °F - 60.8 °F 83% 29.94 in 10.0 mi NNE 6.9 mph - N/A   Scattered Clouds
2:48 AM 66.2 °F - 60.8 °F 83% 29.94 in 9.0 mi NNE 5.8 mph - N/A   Mostly Cloudy
2:58 AM 65.7 °F - 61.3 °F 86% 29.94 in 9.0 mi NNE 4.6 mph - N/A   Mostly Cloudy
3:18 AM 66.2 °F - 60.8 °F 83% 29.94 in 9.0 mi NNE 4.6 mph - N/A   Scattered Clouds
3:58 AM 66.4 °F - 62.1 °F 86% 29.94 in 6.0 mi North 5.8 mph - N/A   Mostly Cloudy
4:18 AM 66.2 °F - 62.6 °F 88% 29.94 in 6.0 mi NNE 3.5 mph - N/A   Mostly Cloudy
4:28 AM 66.2 °F - 60.8 °F 83% 29.94 in 6.0 mi NE 2.3 mph - N/A   Overcast
4:58 AM 65.7 °F - 61.7 °F 87% 29.95 in 10.0 mi NE 3.5 mph - N/A   Mostly Cloudy
5:38 AM 66.2 °F - 62.6 °F 88% 29.96 in 10.0 mi North 3.5 mph - N/A   Overcast
5:58 AM 66.2 °F - 62.1 °F 86% 29.96 in 5.0 mi NNE 4.6 mph - N/A   Overcast
6:06 AM 66.2 °F - 62.6 °F 88% 29.96 in 5.0 mi NE 3.5 mph - N/A   Overcast
6:58 AM 66.2 °F - 62.1 °F 86% 29.97 in 8.0 mi North 3.5 mph - N/A   Overcast
7:58 AM 66.7 °F - 62.2 °F 85% 29.99 in 6.0 mi NE 3.5 mph - N/A   Overcast
8:48 AM 68.0 °F - 62.6 °F 83% 29.99 in 10.0 mi East 5.8 mph - N/A   Overcast
8:58 AM 68.9 °F - 62.1 °F 79% 30.00 in 5.0 mi East 4.6 mph - N/A   Mostly Cloudy
9:50 AM 71.6 °F - 60.8 °F 69% 30.00 in 5.0 mi East 4.6 mph - N/A   Mostly Cloudy
9:58 AM 71.4 °F - 61.2 °F 70% 30.00 in 5.0 mi ESE 6.9 mph - N/A   Mostly Cloudy
10:18 AM 71.6 °F - 60.8 °F 69% 30.00 in 10.0 mi East 6.9 mph - N/A   Scattered Clouds
10:58 AM 73.4 °F - 59.9 °F 63% 30.00 in 10.0 mi ENE 6.9 mph - N/A   Mostly Cloudy
11:58 AM 76.3 °F - 60.3 °F 57% 30.01 in 10.0 mi East 4.6 mph - N/A   Scattered Clouds
12:58 PM 78.1 °F - 59.9 °F 53% 30.00 in 10.0 mi SSE 4.6 mph - N/A   Scattered Clouds
1:58 PM 79.3 °F - 60.1 °F 52% 30.00 in 10.0 mi ESE 10.4 mph - N/A   Mostly Cloudy
2:58 PM 79.5 °F - 58.8 °F 49% 30.00 in 10.0 mi SSE 9.2 mph - N/A   Partly Cloudy
3:58 PM 81.7 °F 82.3 °F 61.0 °F 49% 29.99 in 10.0 mi SSE 8.1 mph - N/A   Scattered Clouds
4:58 PM 81.1 °F 81.5 °F 59.2 °F 47% 29.97 in 10.0 mi SW 5.8 mph - N/A   Mostly Cloudy
5:55 PM 81.9 °F 81.7 °F 57.6 °F 43% 29.96 in 10.0 mi South 8.1 mph - N/A   Scattered Clouds
6:58 PM 81.7 °F 82.0 °F 59.4 °F 47% 29.99 in 10.0 mi SE 11.5 mph - N/A   Scattered Clouds
7:58 PM 80.1 °F 80.5 °F 57.7 °F 46% 29.99 in 10.0 mi South 6.9 mph - N/A   Partly Cloudy
8:58 PM 76.6 °F - 59.9 °F 56% 30.00 in 10.0 mi SSE 4.6 mph - N/A   Partly Cloudy
9:58 PM 74.8 °F - 61.5 °F 63% 30.01 in 10.0 mi Calm Calm - N/A   Scattered Clouds
10:58 PM 73.2 °F - 61.5 °F 67% 30.03 in 10.0 mi Calm Calm - N/A   Scattered Clouds
11:58 PM 72.0 °F - 62.2 °F 71% 30.02 in 10.0 mi SSE 3.5 mph - N/A   Partly Cloudy